Date,TemperatureHighF,TemperatureAvgF,TemperatureLowF,DewpointHighF,DewpointAvgF,DewpointLowF,HumidityHigh,HumidityAvg,HumidityLow,PressureMaxIn,PressureMinIn,WindSpeedMaxMPH,WindSpeedAvgMPH,GustSpeedMaxMPH,PrecipitationSumIn
2013-3-1,35,30,24,29,26,20,88,84,78,30.27,30.13,5,1,10,0.08
2013-3-2,37,27,16,25,20,13,90,77,55,30.34,30.25,5,1,11,0.18
2013-3-3,39,27,12,26,19,9,95,75,55,30.24,29.97,7,1,12,0.02
2013-3-5,36,33,31,26,24,22,78,72,62,30.23,30.03,16,6,25,0.06
2013-3-6,41,31,20,26,22,17,87,70,52,30.42,30.24,5,1,15,0.00
2013-3-7,49,34,19,30,25,16,93,71,47,30.40,30.26,6,2,13,0.00
2013-3-8,53,43,32,34,32,28,86,67,48,30.33,30.12,5,2,13,0.00
2013-3-9,67,52,40,49,40,32,94,69,39,30.10,29.69,15,2,19,0.52
2013-3-10,56,50,35,53,48,34,97,93,82,29.77,29.57,10,2,23,0.64
2013-3-11,35,32,29,33,28,24,94,86,74,30.00,29.74,13,4,20,0.01
2013-3-12,46,30,24,33,25,22,93,83,61,30.26,30.00,7,2,15,0.00
2013-3-13,47,34,25,24,21,19,82,61,36,30.47,30.26,6,2,16,0.00
2013-3-14,67,45,27,44,32,22,88,62,40,30.39,30.04,10,1,15,0.00
2013-3-15,79,56,34,51,42,33,97,67,32,30.07,29.65,6,1,15,0.00
2013-3-16,61,46,38,49,39,34,88,79,63,30.05,29.64,8,2,14,0.00
2013-3-17,37,35,34,34,32,31,95,91,83,30.06,29.77,14,4,19,0.36
2013-3-18,37,35,35,36,34,33,97,96,95,29.80,29.72,9,2,15,0.01
2013-3-19,46,37,30,29,20,15,87,52,29,30.23,30.04,5,1,19,0.00
2013-3-20,36,31,21,32,20,11,95,66,38,30.32,30.14,9,2,21,0.00
2013-3-21,42,32,19,27,18,12,82,59,36,30.15,29.96,5,1,11,0.00
2013-3-22,41,36,32,31,27,22,82,69,61,30.02,29.96,4,1,9,0.00
2013-3-23,50,41,35,37,31,28,90,68,48,30.03,29.85,9,3,18,0.10
2013-3-24,38,32,30,35,30,28,96,94,91,29.95,29.67,11,3,20,0.17
2013-3-25,34,30,27,32,27,24,93,88,80,30.26,29.95,10,2,17,0.16
2013-3-26,42,32,22,28,24,20,93,75,51,30.39,30.26,6,1,12,0.19
2013-3-27,47,35,20,33,26,18,95,74,49,30.40,30.26,6,0,11,0.01
2013-3-28,39,38,37,33,32,31,80,77,76,30.31,30.27,3,1,9,0.00
2013-3-31,58,52,47,40,37,33,60,57,52,29.93,29.89,1,0,9,0.01